Location: Terra Rouge Observatory
(46.0000°N, 62.7500°W)
Time: 20:47:50
(UTC-04:00)

Daily predictions for brighter satellites

Satellite Brightness Start Highest point End
(mag) Time Altitude Azimuth Time Altitude Azimuth Time Altitude Azimuth
SJ-7 4.4 17:22:05 10° SSE 17:26:06 60° ENE 17:30:04 10° N
Cosmos 2333 Rocket 3.9 17:24:26 10° SE 17:27:06 14° E 17:29:47 10° ENE
Cosmos 2298 Rocket 4.0 17:22:49 10° NNW 17:28:09 80° ENE 17:33:27 10° SSE
Cosmos 2221 2.7 17:24:45 10° NNW 17:29:02 77° W 17:33:17 10° S
Cosmos 1464 Rocket 4.2 17:24:36 10° N 17:30:49 81° W 17:36:55 10° S
MSX 3.8 17:26:12 10° SSE 17:31:49 63° ENE 17:37:30 10° N
OTV 4 2.9 17:32:21 10° SSW 17:34:13 15° S 17:36:04 10° SE
Cosmos 841 Rocket 4.4 17:33:43 10° SSE 17:38:12 29° E 17:42:42 10° NE
Cosmos 1766 Rocket 3.6 17:37:26 10° S 17:41:51 64° E 17:46:16 10° NNE
Cosmos 1937 Rocket 3.5 17:38:13 10° NNW 17:43:26 83° ENE 17:48:38 10° SSE
Cosmos 468 Rocket 4.0 17:38:41 10° SSW 17:43:50 73° ESE 17:49:00 10° NNE
SJ-12 4.5 17:39:52 10° S 17:43:59 66° WSW 17:48:07 10° NNW
COSMOS 2455 4.5 17:39:03 10° W 17:44:09 28° NW 17:49:19 10° NNE
Cosmos 2228 Rocket 3.3 17:40:14 10° N 17:44:30 46° ENE 17:48:45 10° SSE
ATLAS 5 CENTAUR R/B 4.2 17:42:10 10° NW 17:44:52 14° N 17:47:43 10° NNE
CORIOLIS 4.2 17:39:33 10° SSE 17:44:54 90° ENE 17:50:18 10° NNW
Cosmos 2322 Rocket 3.4 17:40:59 10° WSW 17:46:17 39° NW 17:51:37 10° NNE
Cosmos 2278 Rocket 3.0 17:42:16 10° N 17:47:14 29° NE 17:52:09 10° ESE
COSMO-SKYMED 1 3.3 17:43:34 10° NNE 17:47:31 33° E 17:51:27 10° SSE
Cosmos 2219 Rocket 3.2 17:44:06 10° SSE 17:48:43 26° ESE 17:53:10 11° NE
CENTAUR R/B 2.8 17:44:14 10° SSW 17:50:04 51° ESE 17:56:39 10° NE
YAOGAN 1 2.8 17:48:11 10° S 17:52:30 74° WSW 17:56:52 10° NNW
Cosmos 1844 3.9 17:51:38 10° NNW 17:57:17 53° ENE 18:02:55 10° SE
Cosmos 1908 3.1 17:53:25 10° N 17:57:19 82° E 18:01:12 10° S
Tsikada Rocket 4.0 17:52:57 10° S 17:59:19 82° E 18:05:46 10° N
Cosmos 1408 Rocket 3.8 18:00:12 10° SSW 18:04:39 74° W 18:09:07 10° N
Cosmos 1484 Rocket 2.7 18:01:29 10° SSE 18:05:23 82° ENE 18:09:23 10° N
BREEZE-M DEB (TANK) 4.1 17:56:29 10° WNW 18:06:20 54° SW 18:09:43 10° SSE
CZ-4 R/B 3.2 18:03:10 10° SSW 18:06:42 33° W 18:10:15 10° NNW
COSMOS 2428 2.7 18:01:03 10° SSW 18:06:42 64° ESE 18:12:21 10° NNE
Cosmos 389 Rocket 3.1 18:03:12 10° NNW 18:06:48 60° W 18:10:18 10° S
USA 116 4.4 18:06:16 10° N 18:09:31 44° WNW 18:12:33 10° SW
Cosmos 2237 4.2 18:06:25 10° SSW 18:12:07 84° ESE 18:17:52 10° NNE
Meteor 2-2 Rocket 4.1 18:08:16 10° N 18:13:57 80° E 18:19:35 10° SSE
Lacrosse 5 rocket 2.2 18:10:46 10° NW 18:14:02 27° NNE 18:15:15 23° ENE
CZ-4C R/B 4.3 18:10:59 10° NW 18:14:56 17° N 18:19:14 10° NNE
Cosmos 2237 Rocket 3.1 18:11:36 10° SSE 18:16:12 27° ESE 18:18:25 21° ENE
ALOS 3.3 18:13:07 10° ESE 18:16:51 24° ENE 18:20:37 10° N
Cosmos 1674 2.8 18:13:05 10° SSW 18:16:54 79° W 18:20:46 10° N
SKYMED 3 4.5 18:13:20 10° NNE 18:17:41 69° ESE 18:22:00 10° S
Cosmos 371 Rocket 3.6 18:17:48 10° S 18:22:19 42° ESE 18:25:10 21° NE
CZ-2C R/B 4.4 18:18:45 10° SSW 18:23:14 32° W 18:27:38 10° NNW
Lacrosse 5 2.8 18:20:06 10° W 18:24:56 41° NNW 18:28:21 18° NE
Cosmos 1743 Rocket 3.5 18:20:35 10° S 18:25:02 89° ESE 18:29:34 10° N
Cosmos 1300 2.7 18:23:55 10° N 18:27:42 56° ENE 18:31:29 10° SSE
Cosmos 1763 Rocket 3.4 18:22:35 10° SSW 18:27:50 90° WNW 18:33:02 10° NNE
Cosmos 1634 Rocket 3.9 18:22:02 10° N 18:28:16 83° E 18:34:27 10° S
Cosmos 1328 Rocket 4.1 18:26:19 10° NNW 18:30:42 61° W 18:35:05 10° S
Cosmos 1515 Rocket 3.8 18:30:40 10° NNW 18:35:09 74° W 18:39:36 10° S
NOAA 12 4.0 18:30:03 10° SSE 18:35:15 74° ENE 18:40:31 10° N
Cosmos 372 Rocket 4.1 18:30:19 10° NNW 18:35:17 50° ENE 18:40:13 10° SE
SKYMED 2 3.7 18:31:24 10° N 18:35:45 78° WNW 18:40:04 10° SSW
Cosmos 1328 3.6 18:34:30 10° S 18:38:25 73° E 18:41:16 18° NNE
Cosmos 2058 3.2 18:35:00 10° SSE 18:38:52 41° E 18:39:14 40° ENE
Cosmos 44 Rocket 3.7 18:35:06 10° SSW 18:40:00 48° ESE 18:41:42 34° ENE
Cosmos 1726 2.0 18:38:10 10° N 18:41:57 87° E 18:45:43 10° S
FengYun 1-2 T 4.3 18:40:03 10° SE 18:45:25 50° ENE 18:50:45 10° N
SL-16 R/B 4.5 18:41:35 10° W 18:45:25 18° NW 18:49:16 10° N
SJ-6B 2.7 18:44:26 10° SSE 18:48:27 80° ENE 18:52:35 10° N
USA 215 3.9 18:42:32 10° SSE 18:48:56 56° SW 18:55:23 10° WNW
Molniya-1 4.2 18:46:22 10° SW 18:49:21 81° NW 18:51:03 37° NE
Cosmos 2333 4.4 18:44:48 10° SW 18:50:24 71° WNW 18:54:54 16° NNE
Cosmos 1844 Rocket 3.6 18:45:04 10° NW 18:50:32 50° WSW 18:55:56 10° S
Meteor 1-28 Rocket 3.4 18:49:54 17° N 18:52:39 67° WNW 18:56:20 10° SSW
Cosmos 1500 Rocket 3.9 18:48:32 10° SSW 18:52:50 65° WNW 18:57:11 10° N
Cosmos 2151 2.8 18:49:12 10° S 18:53:25 82° E 18:55:42 27° NNE
Cosmos 1151 Rocket 3.3 18:49:23 10° NNW 18:53:37 68° W 18:57:52 10° S
Cosmos 540 Rocket 3.5 18:49:23 10° S 18:54:27 57° ESE 18:56:01 40° NE
Cosmos 1125 Rocket 3.5 18:50:17 10° NNW 18:55:31 81° WSW 19:00:42 10° SSE
Cosmos 1980 3.6 18:57:03 10° SSW 19:02:41 67° ESE 19:04:40 40° NE
Cosmos 2360 Rocket 4.0 18:59:37 10° WSW 19:04:19 27° NW 19:09:01 10° N
Resurs 01 Rocket 1.6 19:07:54 65° NE 19:07:54 65° NE 19:12:01 10° N
OTV 4 3.1 19:07:44 10° SW 19:09:01 15° SSW 19:09:01 15° SSW
Spot 2 Rocket 3.3 19:05:01 10° SSE 19:10:02 71° ENE 19:15:05 10° N
Cosmos 2333 Rocket 2.1 19:04:50 10° SSW 19:10:29 88° ESE 19:12:51 37° NNE
NOSS 0 Rocket 3.8 19:06:22 10° SSW 19:12:35 84° ESE 19:15:20 36° NNE
Meteor 1-27 4.4 19:07:48 10° NNW 19:13:36 75° W 19:19:24 10° S
Timation 1 Rocket 4.2 19:08:06 10° NNW 19:14:07 67° ENE 19:15:39 49° ESE
Cosmos 1340 Rocket 4.2 19:16:23 10° S 19:18:20 28° S 19:18:20 28° S
FENGYUN 3A 3.5 19:17:20 10° SSE 19:22:41 89° WSW 19:28:06 10° NNW
Cosmos 2279 Rocket 4.3 19:16:53 10° NNW 19:23:02 65° W 19:29:10 10° S
Orbus 7S? 4.4 19:24:45 10° NW 19:28:26 57° NNE 19:28:26 57° NNE
Cosmos 2278 Rocket 2.9 19:26:05 10° NW 19:31:36 52° WSW 19:37:04 10° S
ATLAS 5 CENTAUR R/B 4.2 19:28:45 10° NNW 19:31:06 15° N 19:31:06 15° N
Cosmos 2219 Rocket 2.9 19:26:51 10° SW 19:32:21 52° WNW 19:34:56 30° N
CENTAUR R/B 3.5 19:34:55 10° WSW 19:40:54 42° NW 19:43:56 28° NNE
Nadezhda 4 Rocket 3.9 19:40:28 10° S 19:46:42 88° E 19:46:58 83° NNE
Lacrosse 5 rocket 3.6 19:49:41 10° NW 19:50:59 20° WNW 19:50:59 20° WNW
ALOS 3.4 19:49:40 10° SSW 19:54:05 41° W 19:58:31 10° NNW
Cosmos 2237 Rocket 2.8 19:54:28 10° SW 19:59:56 51° WNW 20:00:18 50° NW
Cosmos 44 4.4 19:57:18 10° SW 20:01:00 43° WSW 20:01:00 43° WSW
SL-16 R/B 3.7 19:57:12 10° SSW 19:59:32 26° SSW 19:59:32 26° SSW
Cosmos 2369 Rocket 4.5 19:59:56 10° N 20:00:36 13° N 20:00:36 13° N
CZ-4C R/B 4.4 20:01:19 10° NNW 20:04:39 19° N 20:04:39 19° N
Cosmos 2297 4.4 20:02:37 10° NW 20:07:32 52° W 20:07:32 52° W
Lacrosse 5 3.9 20:04:55 10° WNW 20:07:33 21° NNW 20:07:33 21° NNW
Cosmos 2333 Rocket 4.5 20:51:33 10° W 20:54:54 19° NW 20:54:54 19° NW
